Regional Weather Roundup
Issued by NWS

Home | Current Version | Previous Version | Text Only | Print | Product List | Glossary Off
Versions: 1 2 3 4 5 6 7 8 9 10 11 12 13 14 15 16 17 18 19 20 21 22 23 24 25 26 27 28 29 30 31 32 33 34 35 36 37 38 39 40 41 42 43 44 45 46 47 48 49 50

000
ASUS45 KBOI 060610
RWRID

IDAHO REGIONAL WEATHER ROUNDUP
NATIONAL WEATHER SERVICE BOISE ID
1200 AM MDT MON JUL 06 2015

NOTE: "FAIR" INDICATES FEW OR NO CLOUDS BELOW 12000 FEET
WITH NO SIGNIFICANT WEATHER AND/OR OBSTRUCTIONS TO VISIBILITY

IDZ012-014-060700-
SOUTHWEST IDAHO


CITY           SKY/WX    TMP DP  RH WIND       PRES   REMARKS
BOISE          PTCLDY    73  54  51 SE8       29.97S
CALDWELL       PTCLDY    68  52  56 CALM      29.97R
MOUNTAIN HOME  PTCLDY    74  49  40 N5        29.97S
$$

IDZ016-017-060700-
SOUTHCENTRAL IDAHO


CITY           SKY/WX    TMP DP  RH WIND       PRES   REMARKS
BURLEY         PTCLDY    63  53  70 W8        30.04R
JEROME         PTCLDY    66  54  65 S6        30.05R
TWIN FALLS     PTCLDY    69  52  54 S12       30.02R
$$

IDZ019>023-060700-
SOUTHEAST IDAHO


CITY           SKY/WX    TMP DP  RH WIND       PRES   REMARKS
IDAHO FALLS    CLOUDY    64  57  78 N12G21    30.09R
POCATELLO      CLEAR     71  50  47 SW12      30.06R
REXBURG        CLOUDY    64  52  64 E12G22    30.12R
$$

IDZ006-010-011-018-031-032-060700-
CENTRAL IDAHO MOUNTAINS


CITY           SKY/WX    TMP DP  RH WIND       PRES   REMARKS
MCCALL         PTCLDY    62  51  67 CALM      30.10R
HAILEY         MOCLDY    63  45  51 NW9       30.12S
STANLEY          N/A     49  41  74 S3        30.23R
SALMON         MOCLDY    63  54  72 CALM      30.03R
CHALLIS        CLOUDY    69  39  33 CALM      30.09R
$$

IDZ002-004-006-007-026-060700-
NORTHERN IDAHO


CITY           SKY/WX    TMP DP  RH WIND       PRES   REMARKS
LEWISTON       CLEAR     81  50  33 CALM      29.90R
LOWELL           N/A     72  57  59 CALM      29.90R
COEUR D`ALENE  CLEAR     70  43  37 NE9       30.03R
MULLAN PASS    CLEAR     49  40  71 E8        30.21S
$$


USA.gov is the U.S. government's official web portal to all federal, state and local government web resources and services.